User: anonymous   Login
Location: Montague
(41.3030°N, 74.7940°W)
Time: 20:01:53
(UTC-04:00)
Language:

Cosmos 1461 - Orbit

View from above orbital plane
View from above orbital plane
View from above satellite
View from above satellite

Ground track
Ground track

The orbit data is extracted from the following two-line orbital elements,

1 14064U 83044A   17082.74914800 +.00000452 +00000-0 +55094-4 0  9993
2 14064 065.0019 189.1315 0084778 076.6362 284.4188 14.93505430710591
Epoch (UTC): 23 March 2017 17:58:46
Eccentricity: 0.0084778
inclination: 65.0019°
perigee height: 528 km
apogee height: 646 km
right ascension of ascending node: 189.1315°
argument of perigee: 76.6362°
revolutions per day: 14.93505430
mean anomaly at epoch: 284.4188°
orbit number at epoch: 71059

The dashed part of the orbit path shows where the satellite is in the earth's shadow,  

DLR